Time,TemperatureF,DewpointF,PressureIn,WindDirection,WindDirectionDegrees,WindSpeedMPH,WindSpeedGustMPH,Humidity,HourlyPrecipIn,Conditions,Clouds,dailyrainin,SolarRadiationWatts/m^2,SoftwareType,DateUTC
2015-02-27 00:23:00,32.0,26.0,-100.00,WSW,249,1.0,4.0,77,0.00,,,0.00,0.000000,,2015-02-27 07:23:00,
2015-02-27 00:32:00,32.0,26.0,-100.00,WSW,249,1.0,4.0,77,0.00,,,0.00,0.000000,,2015-02-27 07:32:00,
2015-02-27 00:42:00,32.0,26.0,-100.00,WSW,249,1.0,4.0,77,0.00,,,0.00,0.000000,,2015-02-27 07:42:00,
2015-02-27 00:51:00,30.0,24.0,-100.00,SE,132,1.0,3.0,79,0.00,,,0.00,0.000000,,2015-02-27 07:51:00,
2015-02-27 01:22:00,30.0,24.0,-100.00,SE,132,1.0,3.0,79,0.00,,,0.00,0.000000,,2015-02-27 08:22:00,
2015-02-27 01:32:00,30.0,24.0,-100.00,SE,132,1.0,3.0,79,0.00,,,0.00,0.000000,,2015-02-27 08:32:00,
2015-02-27 01:42:00,30.0,24.0,-100.00,SE,132,1.0,3.0,79,0.00,,,0.00,0.000000,,2015-02-27 08:42:00,
2015-02-27 01:51:00,28.0,23.0,-100.00,SSW,196,2.0,4.0,82,0.00,,,0.00,0.000000,,2015-02-27 08:51:00,
2015-02-27 02:22:00,28.0,23.0,-100.00,SSW,196,2.0,4.0,82,0.00,,,0.00,0.000000,,2015-02-27 09:22:00,
2015-02-27 02:32:00,28.0,23.0,-100.00,SSW,196,2.0,4.0,82,0.00,,,0.00,0.000000,,2015-02-27 09:32:00,
2015-02-27 02:43:00,28.0,23.0,-100.00,SSW,196,2.0,4.0,82,0.00,,,0.00,0.000000,,2015-02-27 09:43:00,
2015-02-27 02:51:00,30.0,25.0,-100.00,NNE,15,2.0,7.0,80,0.00,,,0.00,0.000000,,2015-02-27 09:51:00,
2015-02-27 03:23:00,30.0,25.0,-100.00,NNE,15,2.0,7.0,80,0.00,,,0.00,0.000000,,2015-02-27 10:23:00,
2015-02-27 03:33:00,30.0,25.0,-100.00,NNE,15,2.0,7.0,80,0.00,,,0.00,0.000000,,2015-02-27 10:33:00,
2015-02-27 03:43:00,30.0,25.0,-100.00,NNE,15,2.0,7.0,80,0.00,,,0.00,0.000000,,2015-02-27 10:43:00,
2015-02-27 03:51:00,31.0,25.0,-100.00,South,190,7.0,10.0,77,0.00,,,0.00,0.000000,,2015-02-27 10:51:00,
2015-02-27 04:23:00,31.0,25.0,-100.00,South,190,7.0,10.0,77,0.00,,,0.00,0.000000,,2015-02-27 11:23:00,
2015-02-27 04:33:00,31.0,25.0,-100.00,South,190,7.0,10.0,77,0.00,,,0.00,0.000000,,2015-02-27 11:33:00,
2015-02-27 04:42:00,31.0,25.0,-100.00,South,190,7.0,10.0,77,0.00,,,0.00,0.000000,,2015-02-27 11:42:00,
2015-02-27 04:51:00,31.0,24.0,-100.00,SSW,200,7.0,14.0,76,0.00,,,0.00,0.000000,,2015-02-27 11:51:00,
2015-02-27 05:22:00,31.0,24.0,-100.00,SSW,200,7.0,14.0,76,0.00,,,0.00,0.000000,,2015-02-27 12:22:00,
2015-02-27 05:33:00,31.0,24.0,-100.00,SSW,200,7.0,14.0,76,0.00,,,0.00,0.000000,,2015-02-27 12:33:00,
2015-02-27 05:43:00,31.0,24.0,-100.00,SSW,200,7.0,14.0,76,0.00,,,0.00,0.000000,,2015-02-27 12:43:00,
2015-02-27 05:51:00,27.0,25.0,-100.00,WNW,286,1.0,7.0,93,0.00,,,0.00,0.000000,,2015-02-27 12:51:00,
2015-02-27 06:23:00,27.0,25.0,-100.00,WNW,286,1.0,7.0,93,0.00,,,0.00,0.000000,,2015-02-27 13:23:00,
2015-02-27 06:33:00,27.0,25.0,-100.00,WNW,286,1.0,7.0,93,0.00,,,0.00,0.000000,,2015-02-27 13:33:00,
2015-02-27 06:42:00,27.0,25.0,-100.00,WNW,286,1.0,7.0,93,0.00,,,0.00,0.000000,,2015-02-27 13:42:00,
2015-02-27 06:51:00,27.0,27.0,-100.00,West,259,2.0,3.0,98,0.00,,,0.00,0.000000,,2015-02-27 13:51:00,
2015-02-27 07:22:00,27.0,27.0,-100.00,West,259,2.0,3.0,98,0.00,,,0.00,0.000000,,2015-02-27 14:22:00,
2015-02-27 07:32:00,27.0,27.0,-100.00,West,259,2.0,3.0,98,0.00,,,0.00,0.000000,,2015-02-27 14:32:00,
2015-02-27 07:42:00,27.0,27.0,-100.00,West,259,2.0,3.0,98,0.00,,,0.00,0.000000,,2015-02-27 14:42:00,
2015-02-27 07:51:00,26.0,25.0,-100.00,North,-9999,0.0,3.0,95,0.00,,,0.00,17.000000,,2015-02-27 14:51:00,
2015-02-27 08:22:00,26.0,25.0,-100.00,North,-9999,0.0,3.0,95,0.00,,,0.00,17.000000,,2015-02-27 15:22:00,
2015-02-27 08:32:00,26.0,25.0,-100.00,North,-9999,0.0,3.0,95,0.00,,,0.00,17.000000,,2015-02-27 15:32:00,
2015-02-27 08:43:00,26.0,25.0,-100.00,North,-9999,0.0,3.0,95,0.00,,,0.00,17.000000,,2015-02-27 15:43:00,